Airfield :
LOGIN :

Register | Disclaimer

   EN    FR    IT 

 










Legend :    VFR   Marginal VFR   IFR   Intensive IFR   Very Intensive IFR
Visi :
Ceiling :
>= 8 km
>= 3000ft
5 to 8 km
1000 to 3000 ft
1500m to 5 km
500 to 1000 ft
800 to 1500m
200 to 500 ft
< 800m
< 200 ft
Symbols :   Thunderstorms  Fog  Heavy snow  Heavy precipitations  Wind > 20 kt
SIGMETs :     Misc.  Thunderstorms  Icing  Turbulence  Mountain Waves  Volcanic Ashes







- Airport Elevation : 57 ft
- IATA code : KRS


ENCN - Kristiansand Kjevik

CURRENT METAR :
  • 181320Z 24005KT CAVOK 20/14 Q1004

EXPIRED METARs :
  • 181250Z 23006KT CAVOK 19/13 Q1004
  • 181220Z 21006KT CAVOK 19/13 Q1005
  • 181150Z 21008KT CAVOK 19/14 Q1005
  • 181120Z 20009KT CAVOK 18/14 Q1006
  • 181050Z 19010KT CAVOK 18/14 Q1006

TAF TAF ENCN
Valid from the 18 at 12:00 until the 18 at 21:00 UTC


181100Z 1812/1821 21015KT 9999 FEW020
TEMPO 1815/1821 23020G30KT
BECMG 1816/1818 BKN012
TEMPO 1818/1821 4000 RADZ BR OVC004
No reported NOTAMs for that airfield.



MET'MAP, your aeronautical weather chart ! - Copyright ORBIFLY December 2007 - Disclaimer

ORBIFLY MET'MAP TEAM :

Programming & Development : Alexandra Zaïnal
Concept & Development : Baudouin d'Aumeries
Co-Development & Prog : Marc-Olivier Méhu
Technical & hardware support : Manuel Goepfert

Contact : metmap@orbifly.com




SOURCES & CREDITS :

   NOAA